Location: Dzierzno
(50.6159°N, 19.2852°E)
Time: 07:03:19
(UTC+00:00)

Cosmos 2297 Rocket - Pass Details

Date: 18 November 2025
Orbit: 837 x 844 km, 71.0° (Epoch: 06 December)

Event Time Altitude Azimuth Distance (km) Brightness Sun altitude
Rises 18:29:06 0° 332° (NNW) 3,412 5.8 -33.9°
Reaches altitude 10° 18:32:00 10° 345° (NNW) 2,475 4.9 -34.4°
Enters shadow 18:33:04 14° 353° (N) 2,176 4.5 -34.6°
